"startDT [UTC]","vpos","CH4 [ppm]","stdev(CH4) [ppm]","CO2 [ppm]","stdev(CO2) [ppm]","H2O_reported [%]","stdev(H2O_reported)","CavityPressure [torr]","CavityTemp [C]","OutletValve","CH4_dry [ppm]","CO2_dry [ppm]","DasTemp [C]","EtalonTemp [C]","WarmBoxTemp [C]","MPVPosition","T_ECpre [C]","T_EC1 [C]","T_EC2 [C]","p_inlet [hPa]","p_in [hPa]","p_out [hPa]","T_inlet [C]","RH_inlet [%]","dwpt_inlet [C]","T_vent [C]","RH_vent [%]","dwpt_vent [C]","flow_vent [l min-1]","flow_inlet [l min-1]","dwpt_sample [C]","T_room [C]"
2013-10-31 00:00:00,3.0,1.88928,0.01858,397.127,0.000,0.0485,0.0597,139.813,45.000,30811.79733,1.89737,397.464,26.875,45.060,45.000,0.00,0.11,-272.58,-272.64,-10,495,6,13.7,6.9,-21.6,13.9,7.2,-21.1,5.73,2.56,-16.2,20.2
2013-10-31 00:01:00,3.0,1.87717,0.00019,397.127,0.000,0.0090,0.0006,140.006,45.000,30802.17871,1.87725,397.170,26.875,45.060,45.000,0.00,0.11,-272.59,-272.64,-10,495,6,13.7,6.9,-21.6,13.9,7.2,-21.1,5.73,2.57,-16.2,20.2
2013-10-31 00:02:00,3.0,1.87762,0.00021,397.127,0.000,0.0093,0.0012,140.004,45.000,30795.96101,1.87767,397.171,26.875,45.060,45.000,0.00,0.11,-272.58,-272.65,-10,495,6,13.7,6.9,-21.6,13.9,7.2,-21.1,5.73,2.60,-16.2,20.2
2013-10-31 00:03:00,3.0,1.87758,0.00064,397.127,0.000,0.0093,0.0018,140.007,45.000,30791.53682,1.87788,397.172,26.875,45.060,45.000,0.00,0.11,-272.58,-272.64,-10,495,6,13.7,6.9,-21.7,13.9,7.1,-21.1,5.73,2.61,-16.2,20.2
2013-10-31 00:04:00,3.0,1.87740,0.00035,397.348,0.198,0.0066,0.0018,140.001,45.000,30786.95521,1.87748,397.335,26.875,45.060,45.000,0.00,0.11,-272.58,-272.64,-10,495,6,13.7,6.9,-21.7,13.9,7.1,-21.2,5.73,2.61,-16.2,20.2
2013-10-31 00:05:00,3.0,1.87729,0.00022,397.555,0.027,0.0069,0.0011,140.002,45.000,30785.86779,1.87741,397.583,26.875,45.060,45.000,0.00,0.11,-272.58,-272.64,-10,495,6,13.8,6.9,-21.7,13.9,7.1,-21.2,5.73,2.60,-16.2,20.2
2013-10-31 00:06:00,3.0,1.87746,0.00022,397.580,0.000,0.0055,0.0016,139.994,45.000,30782.51638,1.87752,397.607,26.875,45.060,45.000,0.00,0.11,-272.58,-272.65,-10,495,6,13.8,6.9,-21.6,13.9,7.1,-21.1,5.73,2.60,-16.2,20.2
2013-10-31 00:07:00,3.0,1.87741,0.00029,397.580,0.000,0.0026,0.0013,140.001,45.000,30784.82705,1.87743,397.596,26.875,45.060,45.000,0.00,0.11,-272.58,-272.64,-10,495,6,13.8,6.9,-21.6,14.0,7.1,-21.1,5.73,2.61,-16.2,20.3
2013-10-31 00:08:00,3.0,1.87735,0.00049,397.551,0.014,0.0038,0.0010,139.993,45.000,30782.43716,1.87742,397.571,26.875,45.060,45.000,0.00,0.11,-272.58,-272.65,-10,496,6,13.9,6.9,-21.6,14.0,7.1,-21.1,5.73,2.60,-16.1,20.3
2013-10-31 00:09:00,3.0,1.87715,0.00021,397.544,0.000,0.0023,0.0020,140.001,45.000,30787.35399,1.87732,397.556,26.875,45.060,45.000,0.00,0.11,-272.58,-272.64,-10,496,6,13.9,6.9,-21.5,14.0,7.1,-21.0,5.73,2.59,-16.2,20.4
2013-10-31 00:10:00,3.0,1.87713,0.00033,397.657,0.000,0.0035,0.0007,139.999,45.000,30785.28940,1.87714,397.661,26.888,45.060,45.000,0.00,0.11,-272.58,-272.64,-10,496,6,13.9,6.9,-21.5,14.1,7.1,-21.0,5.73,2.58,-16.2,20.4
2013-10-31 00:11:00,3.0,1.87736,0.00026,397.657,0.000,0.0010,0.0010,139.999,45.000,30785.90123,1.87734,397.662,26.913,45.060,45.000,0.00,0.11,-272.58,-272.64,-10,496,6,14.0,6.9,-21.5,14.1,7.1,-21.0,5.73,2.58,-16.1,20.4
2013-10-31 00:12:00,3.0,1.87746,0.00024,397.650,0.006,0.0009,0.0014,140.007,45.000,30785.75031,1.87746,397.656,26.916,45.061,45.000,0.00,0.11,-272.59,-272.64,-10,497,6,14.0,6.9,-21.5,14.1,7.1,-21.0,5.73,2.57,-16.1,20.5
2013-10-31 00:13:00,3.0,1.87766,0.00030,397.688,0.000,0.0017,0.0018,140.004,45.000,30786.65139,1.87766,397.692,26.934,45.060,45.000,0.00,0.11,-272.58,-272.64,-10,497,6,14.1,6.9,-21.4,14.2,7.1,-20.9,5.73,2.57,-16.1,20.5
2013-10-31 00:14:00,3.0,1.87747,0.00027,397.688,0.000,0.0008,0.0011,140.003,45.000,30786.36706,1.87759,397.693,26.938,45.060,45.000,0.00,0.11,-272.58,-272.64,-10,497,6,14.1,6.9,-21.4,14.2,7.1,-20.9,5.73,2.58,-16.1,20.6
2013-10-31 00:15:00,3.0,1.87755,0.00023,397.688,0.000,0.0039,0.0025,140.005,45.000,30787.47456,1.87757,397.703,26.960,45.060,45.000,0.00,0.11,-272.59,-272.64,-10,497,6,14.2,6.9,-21.4,14.2,7.1,-20.9,5.73,2.59,-16.1,20.6
2013-10-31 00:16:00,3.0,1.87774,0.00040,397.680,0.000,0.0019,0.0014,139.995,45.000,30785.23097,1.87770,397.690,26.998,45.060,45.000,0.00,0.11,-272.58,-272.64,-10,497,6,14.2,6.9,-21.3,14.3,7.1,-20.9,5.73,2.59,-16.1,20.6
2013-10-31 00:17:00,3.0,1.87759,0.00021,397.664,0.009,0.0006,0.0008,139.995,45.000,30786.07051,1.87766,397.672,27.000,45.060,45.000,0.00,0.11,-272.58,-272.64,-10,498,6,14.3,6.9,-21.3,14.3,7.1,-20.9,5.73,2.60,-16.1,20.6
2013-10-31 00:18:00,3.0,1.87774,0.00028,397.658,0.002,0.0019,0.0009,140.003,45.000,30787.99446,1.87786,397.666,27.000,45.060,45.000,0.00,0.11,-272.58,-272.64,-11,498,6,14.3,6.9,-21.3,14.4,7.1,-20.8,5.73,2.60,-16.1,20.6
2013-10-31 00:19:00,3.0,1.87770,0.00026,397.656,0.000,0.0018,0.0021,139.999,45.000,30790.62737,1.87765,397.663,27.008,45.060,45.000,0.00,0.11,-272.58,-272.64,-11,498,6,14.4,6.9,-21.2,14.4,7.1,-20.8,5.73,2.61,-16.1,20.7
2013-10-31 00:20:00,0.0,1.91076,0.01266,397.656,0.000,0.1221,0.0281,139.998,45.000,31196.68605,1.90303,398.119,27.059,45.060,45.000,0.00,0.11,-272.58,-272.64,-10,557,6,14.4,6.8,-21.3,14.4,7.1,-20.9,5.73,2.59,-16.0,20.7
2013-10-31 00:21:00,0.0,1.91593,0.00018,397.366,0.078,0.1459,0.0016,139.999,45.000,31210.62868,1.91871,398.093,27.061,45.060,45.000,0.00,0.11,-272.58,-272.64,-11,558,6,14.4,6.8,-21.2,14.5,7.1,-20.8,5.73,2.60,-16.0,20.7
2013-10-31 00:22:00,0.0,1.91524,0.00028,397.189,0.046,0.1465,0.0010,140.000,45.000,31221.11034,1.91817,397.903,27.056,45.060,45.000,0.00,0.11,-272.59,-272.64,-11,558,6,14.5,6.9,-21.1,14.5,7.1,-20.7,5.73,2.59,-16.0,20.8
2013-10-31 00:23:00,0.0,1.91491,0.00014,397.164,0.000,0.1470,0.0017,140.003,45.000,31226.59329,1.91771,397.870,27.063,45.060,45.000,0.00,0.11,-272.58,-272.64,-11,559,6,14.5,6.9,-21.1,14.5,7.1,-20.7,5.73,2.59,-16.0,20.8
2013-10-31 00:24:00,0.0,1.91510,0.00025,397.206,0.029,0.1497,0.0026,139.998,45.000,31233.47237,1.91783,397.917,27.063,45.060,45.000,0.00,0.11,-272.58,-272.64,-11,559,6,14.5,6.9,-21.1,14.5,7.1,-20.7,5.73,2.58,-16.0,20.8
2013-10-31 00:25:00,0.0,1.91486,0.00044,397.220,0.009,0.1490,0.0007,140.005,45.000,31240.39530,1.91785,397.935,27.063,45.060,45.000,0.00,0.11,-272.58,-272.64,-11,559,6,14.5,6.9,-21.0,14.5,7.2,-20.6,5.73,2.58,-16.0,20.8
2013-10-31 00:26:00,0.0,1.91460,0.00022,397.205,0.009,0.1497,0.0008,140.003,45.000,31243.15117,1.91737,397.925,27.063,45.060,45.000,0.00,0.11,-272.58,-272.64,-11,559,6,14.5,6.9,-21.1,14.5,7.2,-20.6,5.73,2.58,-16.0,20.8
2013-10-31 00:27:00,0.0,1.91426,0.00058,397.191,0.000,0.1474,0.0007,139.999,45.000,31242.76035,1.91728,397.898,27.063,45.060,45.000,0.00,0.11,-272.58,-272.64,-11,559,6,14.5,6.9,-21.2,14.5,7.1,-20.7,5.73,2.58,-16.0,20.8
2013-10-31 00:28:00,0.0,1.91373,0.00032,397.161,0.027,0.1471,0.0012,140.001,45.000,31247.86919,1.91657,397.871,27.063,45.060,45.000,0.00,0.11,-272.58,-272.64,-11,559,6,14.4,6.9,-21.2,14.5,7.1,-20.7,5.73,2.59,-16.0,20.8
2013-10-31 00:29:00,0.0,1.91402,0.00041,397.137,0.000,0.1469,0.0013,140.003,45.000,31250.62807,1.91677,397.842,27.063,45.060,45.000,0.00,0.11,-272.58,-272.64,-11,559,6,14.4,6.8,-21.3,14.5,7.0,-20.8,5.73,2.59,-15.9,20.8
2013-10-31 00:30:00,0.0,1.91385,0.00050,397.137,0.000,0.1444,0.0004,140.005,45.000,31253.48924,1.91651,397.829,27.063,45.060,45.000,0.00,0.11,-272.58,-272.64,-11,559,6,14.4,6.8,-21.4,14.6,7.0,-20.9,5.73,2.61,-16.0,20.8
2013-10-31 00:31:00,0.0,1.91365,0.00037,397.202,0.052,0.1460,0.0015,139.997,45.000,31250.95453,1.91646,397.893,27.063,45.060,45.000,0.00,0.11,-272.58,-272.64,-11,559,6,14.4,6.8,-21.4,14.5,7.0,-20.8,5.73,2.61,-15.9,20.8
2013-10-31 00:32:00,0.0,1.91381,0.00046,397.190,0.030,0.1463,0.0021,139.998,45.000,31251.99637,1.91663,397.897,27.063,45.060,45.000,0.00,0.11,-272.58,-272.64,-11,559,6,14.4,6.8,-21.3,14.5,7.0,-20.8,5.73,2.61,-15.9,20.8
2013-10-31 00:33:00,0.0,1.91358,0.00036,397.145,0.000,0.1459,0.0009,140.007,45.000,31255.19731,1.91631,397.847,27.063,45.060,45.000,0.00,0.11,-272.58,-272.64,-11,559,6,14.4,6.8,-21.3,14.5,7.0,-20.8,5.73,2.60,-15.9,20.8
2013-10-31 00:34:00,0.0,1.91354,0.00024,397.113,0.000,0.1465,0.0015,140.002,45.000,31254.28892,1.91633,397.816,27.067,45.060,45.000,0.00,0.11,-272.58,-272.64,-11,559,6,14.4,6.8,-21.4,14.5,7.0,-20.9,5.73,2.60,-15.9,20.8
2013-10-31 00:35:00,0.0,1.91371,0.00056,397.177,0.034,0.1474,0.0017,139.997,45.000,31252.54920,1.91654,397.876,27.070,45.060,45.000,0.00,0.11,-272.59,-272.64,-11,559,6,14.3,6.8,-21.3,14.5,7.0,-20.8,5.73,2.57,-15.9,20.8
2013-10-31 00:36:00,0.0,1.91303,0.00024,397.068,0.064,0.1463,0.0015,140.004,45.000,31256.86250,1.91585,397.785,27.076,45.060,45.000,0.00,0.11,-272.58,-272.64,-11,559,6,14.3,6.8,-21.3,14.5,7.1,-20.8,5.73,2.57,-15.9,20.8
2013-10-31 00:37:00,0.0,1.91278,0.00033,397.057,0.032,0.1462,0.0020,139.997,45.000,31255.66497,1.91555,397.750,27.065,45.060,45.000,0.00,0.11,-272.58,-272.64,-11,559,6,14.3,6.8,-21.4,14.5,7.0,-20.9,5.73,2.57,-15.9,20.8
2013-10-31 00:38:00,0.0,1.91315,0.00030,397.101,0.000,0.1455,0.0006,139.993,45.000,31257.08086,1.91583,397.798,27.086,45.060,45.000,0.00,0.11,-272.58,-272.64,-11,559,6,14.3,6.8,-21.4,14.5,7.0,-20.9,5.73,2.58,-15.9,20.7
2013-10-31 00:39:00,0.0,1.91331,0.00047,397.085,0.025,0.1466,0.0018,139.999,45.000,31258.28479,1.91610,397.787,27.115,45.060,45.000,0.00,0.11,-272.58,-272.64,-11,559,6,14.2,6.9,-21.3,14.5,7.1,-20.8,5.73,2.60,-15.9,20.7
2013-10-31 00:40:00,0.0,1.91416,0.00049,397.087,0.003,0.1515,0.0011,140.003,45.000,31261.55739,1.91680,397.810,27.125,45.060,45.000,0.00,0.11,-272.58,-272.64,-11,559,6,14.2,6.9,-21.2,14.5,7.1,-20.7,5.73,2.61,-15.9,20.7
2013-10-31 00:41:00,0.0,1.91398,0.00057,397.072,0.012,0.1511,0.0006,140.008,45.000,31263.06269,1.91700,397.798,27.125,45.060,45.000,0.00,0.11,-272.58,-272.64,-11,559,6,14.2,7.0,-21.1,14.5,7.2,-20.6,5.73,2.60,-15.9,20.7
2013-10-31 00:42:00,0.0,1.91264,0.00060,397.056,0.010,0.1498,0.0009,140.007,45.000,31261.25930,1.91564,397.778,27.133,45.060,45.000,0.00,0.11,-272.58,-272.64,-11,559,6,14.2,7.1,-21.0,14.5,7.3,-20.5,5.73,2.61,-15.9,20.7
2013-10-31 00:43:00,0.0,1.91282,0.00034,397.055,0.014,0.1477,0.0015,140.004,45.000,31261.80472,1.91561,397.764,27.136,45.060,45.000,0.00,0.11,-272.58,-272.64,-11,559,6,14.2,7.0,-21.2,14.4,7.2,-20.7,5.73,2.60,-15.9,20.7
2013-10-31 00:44:00,0.0,1.91292,0.00070,397.023,0.014,0.1492,0.0021,139.997,45.000,31259.01800,1.91563,397.741,27.180,45.060,45.000,0.00,0.11,-272.58,-272.64,-11,559,6,14.2,6.9,-21.2,14.5,7.1,-20.7,5.73,2.57,-15.8,20.7
2013-10-31 00:45:00,0.0,1.91279,0.00018,397.013,0.011,0.1472,0.0012,139.997,45.000,31259.45555,1.91568,397.716,27.188,45.060,45.000,0.00,0.11,-272.58,-272.64,-11,559,6,14.2,6.9,-21.2,14.4,7.1,-20.7,5.73,2.57,-15.8,20.7
2013-10-31 00:46:00,0.0,1.91338,0.00056,397.031,0.000,0.1477,0.0011,140.010,45.000,31261.77197,1.91605,397.735,27.188,45.060,45.000,0.00,0.11,-272.58,-272.64,-11,559,6,14.2,6.9,-21.3,14.4,7.1,-20.7,5.73,2.57,-15.8,20.7
2013-10-31 00:47:00,0.0,1.91240,0.00027,396.961,0.058,0.1488,0.0011,139.999,45.000,31259.33215,1.91547,397.681,27.188,45.060,45.000,0.00,0.11,-272.58,-272.64,-11,559,6,14.2,7.0,-21.2,14.4,7.2,-20.7,5.73,2.59,-15.8,20.7
2013-10-31 00:48:00,0.0,1.91300,0.00035,396.959,0.017,0.1484,0.0016,140.014,45.000,31262.14259,1.91558,397.667,27.188,45.060,45.000,0.00,0.11,-272.58,-272.64,-11,559,6,14.2,6.9,-21.3,14.4,7.1,-20.8,5.73,2.60,-15.8,20.7
2013-10-31 00:49:00,0.0,1.91256,0.00060,396.962,0.025,0.1464,0.0017,139.997,45.000,31259.08691,1.91546,397.669,27.195,45.060,45.000,0.00,0.11,-272.58,-272.64,-11,559,6,14.2,6.9,-21.3,14.4,7.1,-20.8,5.73,2.62,-15.8,20.7
2013-10-31 00:50:00,0.0,1.91265,0.00050,396.977,0.034,0.1485,0.0024,140.008,45.000,31261.65365,1.91545,397.687,27.191,45.060,45.000,0.00,0.11,-272.58,-272.64,-11,559,6,14.2,6.9,-21.2,14.4,7.2,-20.7,5.73,2.61,-15.3,20.7
2013-10-31 00:51:00,0.0,1.91284,0.00047,396.928,0.000,0.1500,0.0017,139.999,45.000,31258.04212,1.91540,397.643,27.203,45.060,45.000,0.00,0.11,-272.58,-272.64,-11,559,6,14.2,7.0,-21.2,14.4,7.2,-20.7,5.73,2.60,-14.6,20.7
2013-10-31 00:52:00,0.0,1.91252,0.00045,396.928,0.000,0.1501,0.0004,140.000,45.000,31259.37455,1.91562,397.648,27.194,45.060,45.000,0.00,0.11,-272.58,-272.64,-11,559,6,14.2,7.0,-21.1,14.4,7.2,-20.7,5.73,2.58,-14.7,20.7
2013-10-31 00:53:00,0.0,1.91241,0.00023,396.944,0.000,0.1500,0.0019,140.000,45.000,31259.05065,1.91521,397.660,27.215,45.060,45.000,0.00,0.11,-272.58,-272.64,-11,559,6,14.2,7.0,-21.2,14.4,7.2,-20.7,5.73,2.57,-14.8,20.7
2013-10-31 00:54:00,0.0,1.91228,0.00029,396.943,0.001,0.1490,0.0015,139.996,45.000,31256.02950,1.91507,397.657,27.207,45.060,45.000,0.00,0.11,-272.58,-272.64,-11,559,5,14.2,7.0,-21.2,14.4,7.2,-20.7,5.73,2.57,-14.9,20.7
2013-10-31 00:55:00,0.0,1.91287,0.00069,396.941,0.000,0.1489,0.0005,140.000,45.000,31257.42256,1.91549,397.655,27.215,45.060,45.000,0.00,0.11,-272.58,-272.64,-11,558,6,14.1,7.0,-21.2,14.4,7.2,-20.7,5.73,2.56,-15.0,20.7
2013-10-31 00:56:00,0.0,1.91251,0.00082,396.839,0.077,0.1508,0.0019,140.003,45.000,31257.40147,1.91559,397.574,27.215,45.060,45.000,0.00,0.11,-272.58,-272.64,-11,558,6,14.1,7.1,-21.1,14.4,7.3,-20.6,5.73,2.58,-15.0,20.7
2013-10-31 00:57:00,0.0,1.91222,0.00046,396.781,0.000,0.1495,0.0013,139.997,45.000,31255.29285,1.91493,397.500,27.198,45.060,45.000,0.00,0.11,-272.58,-272.64,-11,558,6,14.1,7.0,-21.2,14.4,7.2,-20.7,5.73,2.61,-15.1,20.7
2013-10-31 00:58:00,0.0,1.91172,0.00040,396.794,0.020,0.1487,0.0005,139.995,45.000,31256.56316,1.91465,397.502,27.188,45.060,45.000,0.00,0.11,-272.58,-272.64,-11,558,6,14.1,7.0,-21.3,14.4,7.2,-20.7,5.73,2.61,-15.1,20.7
2013-10-31 00:59:00,0.0,1.91218,0.00058,396.871,0.000,0.1469,0.0006,140.004,45.000,31257.64632,1.91483,397.570,27.196,45.060,45.000,0.00,0.11,-272.58,-272.64,-11,558,6,14.1,7.0,-21.3,14.3,7.2,-20.8,5.73,2.60,-15.2,20.7
2013-10-31 01:00:00,0.0,1.91291,0.00041,396.817,0.000,0.1489,0.0023,140.000,45.000,31255.48051,1.91556,397.533,27.201,45.060,45.000,0.00,0.11,-272.58,-272.64,-11,558,6,14.0,7.0,-21.3,14.3,7.2,-20.7,5.73,2.61,-15.2,20.7
2013-10-31 01:01:00,0.0,1.91217,0.00040,396.817,0.000,0.1511,0.0011,139.997,45.000,31255.44664,1.91523,397.540,27.192,45.060,45.000,0.00,0.11,-272.58,-272.64,-11,558,6,14.1,7.0,-21.2,14.3,7.2,-20.7,5.73,2.58,-15.3,20.7
2013-10-31 01:02:00,0.0,1.91269,0.00068,396.814,0.000,0.1502,0.0019,140.000,45.000,31256.87901,1.91559,397.533,27.191,45.060,45.000,0.00,0.11,-272.58,-272.65,-11,558,6,14.1,7.0,-21.2,14.3,7.2,-20.7,5.73,2.57,-15.3,20.7
2013-10-31 01:03:00,0.0,1.91221,0.00081,396.789,0.019,0.1515,0.0017,139.998,45.000,31257.07201,1.91509,397.518,27.196,45.060,45.000,0.00,0.11,-272.58,-272.64,-11,558,6,14.1,7.1,-21.1,14.3,7.3,-20.6,5.73,2.56,-15.3,20.7
2013-10-31 01:04:00,0.0,1.91232,0.00036,396.777,0.001,0.1524,0.0014,139.997,45.000,31256.05937,1.91503,397.505,27.188,45.060,45.000,0.00,0.11,-272.58,-272.64,-11,558,6,14.0,7.1,-21.1,14.3,7.3,-20.6,5.73,2.58,-15.3,20.7
2013-10-31 01:05:00,0.0,1.91209,0.00066,396.779,0.003,0.1520,0.0021,140.006,45.000,31260.08342,1.91486,397.505,27.188,45.060,45.000,0.00,0.11,-272.58,-272.64,-11,558,6,14.0,7.1,-21.1,14.3,7.3,-20.6,5.73,2.59,-15.4,20.7
2013-10-31 01:06:00,0.0,1.91198,0.00031,396.722,0.027,0.1530,0.0016,139.996,45.000,31257.70059,1.91495,397.463,27.188,45.060,45.000,0.00,0.11,-272.58,-272.65,-11,558,6,14.0,7.1,-21.1,14.3,7.3,-20.6,5.73,2.60,-15.4,20.6
2013-10-31 01:07:00,0.0,1.91268,0.00023,396.704,0.013,0.1510,0.0015,139.999,45.000,31256.76818,1.91551,397.423,27.188,45.060,45.000,0.00,0.11,-272.58,-272.64,-11,558,6,14.0,7.1,-21.1,14.2,7.3,-20.6,5.73,2.62,-15.4,20.6
2013-10-31 01:08:00,0.0,1.91163,0.00018,396.704,0.031,0.1512,0.0010,139.997,45.000,31254.99765,1.91461,397.429,27.185,45.060,45.000,0.00,0.11,-272.58,-272.64,-11,558,6,14.0,7.2,-21.1,14.2,7.4,-20.5,5.73,2.60,-15.4,20.6
2013-10-31 01:09:00,0.0,1.91213,0.00020,396.708,0.000,0.1497,0.0014,140.001,45.000,31254.30251,1.91485,397.426,27.181,45.060,45.000,0.00,0.11,-272.59,-272.64,-11,558,6,13.9,7.1,-21.1,14.2,7.3,-20.6,5.73,2.60,-15.5,20.6
2013-10-31 01:10:00,0.0,1.91203,0.00010,396.665,0.033,0.1523,0.0017,139.996,45.000,31253.37845,1.91490,397.400,27.184,45.060,45.000,0.00,0.11,-272.58,-272.64,-11,558,6,14.0,7.1,-21.1,14.2,7.4,-20.5,5.73,2.58,-15.5,20.6
2013-10-31 01:11:00,0.0,1.91216,0.00060,396.734,0.050,0.1514,0.0011,139.995,45.000,31251.41470,1.91484,397.444,27.186,45.060,45.000,0.00,0.11,-272.58,-272.64,-11,558,6,14.0,7.1,-21.1,14.2,7.3,-20.6,5.73,2.57,-15.5,20.6
2013-10-31 01:12:00,0.0,1.91249,0.00058,396.761,0.000,0.1504,0.0016,139.993,45.000,31250.40709,1.91550,397.481,27.166,45.060,45.000,0.00,0.11,-272.58,-272.64,-11,558,6,14.0,7.1,-21.2,14.2,7.3,-20.6,5.73,2.56,-15.5,20.6
2013-10-31 01:13:00,0.0,1.91184,0.00011,396.717,0.015,0.1517,0.0019,139.997,45.000,31251.51386,1.91474,397.449,27.166,45.060,45.000,0.00,0.11,-272.58,-272.65,-11,557,6,14.0,7.1,-21.2,14.2,7.3,-20.6,5.73,2.58,-15.5,20.6
2013-10-31 01:14:00,0.0,1.91183,0.00026,396.673,0.030,0.1503,0.0013,140.004,45.000,31253.02021,1.91475,397.398,27.186,45.060,45.000,0.00,0.11,-272.58,-272.64,-11,557,6,14.0,7.1,-21.2,14.2,7.3,-20.6,5.73,2.58,-15.6,20.6
2013-10-31 01:15:00,0.0,1.91206,0.00028,396.651,0.000,0.1497,0.0003,140.005,45.000,31252.01384,1.91468,397.366,27.188,45.060,45.000,0.00,0.11,-272.58,-272.64,-11,557,6,13.9,7.1,-21.2,14.2,7.3,-20.7,5.73,2.62,-15.6,20.6
2013-10-31 01:16:00,0.0,1.91219,0.00017,396.697,0.047,0.1510,0.0017,140.005,45.000,31252.84605,1.91503,397.421,27.188,45.060,45.000,0.00,0.11,-272.59,-272.64,-11,557,6,14.0,7.1,-21.2,14.2,7.3,-20.7,5.73,2.61,-15.6,20.6
2013-10-31 01:17:00,0.0,1.91175,0.00026,396.612,0.000,0.1522,0.0014,139.999,45.000,31250.61556,1.91480,397.341,27.188,45.060,45.000,0.00,0.11,-272.58,-272.64,-11,557,6,14.0,7.1,-21.1,14.2,7.3,-20.6,5.73,2.60,-15.6,20.6
2013-10-31 01:18:00,0.0,1.91238,0.00064,396.645,0.000,0.1510,0.0014,140.002,45.000,31254.12429,1.91516,397.365,27.188,45.060,45.000,0.00,0.11,-272.58,-272.64,-11,557,6,14.0,7.1,-21.2,14.2,7.3,-20.7,5.73,2.58,-15.6,20.6
2013-10-31 01:19:00,0.0,1.91178,0.00062,396.638,0.031,0.1517,0.0012,139.997,45.000,31251.51914,1.91451,397.358,27.188,45.060,45.000,0.00,0.11,-272.59,-272.64,-11,557,6,14.0,7.1,-21.1,14.2,7.3,-20.7,5.73,2.58,-15.6,20.6
2013-10-31 01:20:00,0.0,1.91245,0.00037,396.682,0.000,0.1503,0.0009,140.011,45.000,31255.00491,1.91530,397.403,27.188,45.060,45.000,0.00,0.11,-272.58,-272.64,-11,557,6,14.0,7.1,-21.2,14.2,7.3,-20.7,5.73,2.57,-15.6,20.6
2013-10-31 01:21:00,0.0,1.91218,0.00043,396.682,0.000,0.1502,0.0009,139.994,45.000,31249.11428,1.91513,397.402,27.188,45.060,45.000,0.00,0.11,-272.58,-272.64,-11,557,6,14.0,7.1,-21.2,14.2,7.3,-20.7,5.73,2.57,-15.6,20.6
2013-10-31 01:22:00,0.0,1.91186,0.00042,396.682,0.000,0.1492,0.0007,140.004,45.000,31253.96836,1.91485,397.396,27.195,45.060,45.000,0.00,0.11,-272.58,-272.64,-11,557,6,13.9,7.1,-21.2,14.2,7.3,-20.7,5.73,2.60,-15.7,20.6
2013-10-31 01:23:00,0.0,1.91185,0.00043,396.682,0.000,0.1492,0.0020,139.995,45.000,31248.68310,1.91438,397.396,27.191,45.060,45.000,0.00,0.11,-272.58,-272.64,-11,557,6,13.9,7.0,-21.3,14.2,7.3,-20.8,5.73,2.61,-15.7,20.6
2013-10-31 01:24:00,0.0,1.91222,0.00028,396.696,0.005,0.1500,0.0014,140.001,45.000,31250.40375,1.91518,397.411,27.188,45.060,45.000,0.00,0.11,-272.58,-272.64,-11,557,6,13.9,7.0,-21.3,14.2,7.3,-20.8,5.73,2.62,-15.6,20.6
2013-10-31 01:25:00,0.0,1.91169,0.00043,396.661,0.003,0.1504,0.0018,139.998,45.000,31249.92862,1.91455,397.385,27.188,45.060,45.000,0.00,0.11,-272.58,-272.64,-11,557,6,13.9,7.1,-21.3,14.2,7.3,-20.7,5.73,2.60,-15.7,20.6
2013-10-31 01:26:00,0.0,1.91189,0.00061,396.664,0.012,0.1498,0.0021,140.005,45.000,31251.47755,1.91477,397.380,27.188,45.060,45.000,0.00,0.11,-272.58,-272.64,-11,557,6,13.9,7.0,-21.3,14.2,7.2,-20.8,5.73,2.59,-15.7,20.6
2013-10-31 01:27:00,0.0,1.91191,0.00032,396.676,0.000,0.1480,0.0009,139.994,45.000,31246.41980,1.91464,397.386,27.197,45.060,45.000,0.00,0.11,-272.58,-272.64,-11,557,6,13.9,7.0,-21.3,14.1,7.3,-20.8,5.73,2.57,-15.7,20.5
2013-10-31 01:28:00,0.0,1.91216,0.00026,396.677,0.001,0.1492,0.0010,139.995,45.000,31244.88423,1.91492,397.389,27.192,45.060,45.000,0.00,0.11,-272.58,-272.64,-11,557,6,13.9,7.0,-21.3,14.1,7.2,-20.8,5.73,2.56,-15.7,20.6
2013-10-31 01:29:00,0.0,1.91216,0.00052,396.679,0.000,0.1490,0.0010,140.005,45.000,31249.13164,1.91511,397.393,27.203,45.060,45.000,0.00,0.11,-272.58,-272.64,-11,557,6,13.9,7.0,-21.3,14.1,7.2,-20.8,5.73,2.58,-15.7,20.6
2013-10-31 01:30:00,0.0,1.91152,0.00035,396.631,0.036,0.1467,0.0015,140.005,45.000,31249.38886,1.91428,397.340,27.201,45.060,45.000,0.00,0.11,-272.58,-272.64,-11,557,6,13.9,7.0,-21.4,14.1,7.2,-20.8,5.73,2.58,-15.7,20.6
2013-10-31 01:31:00,0.0,1.91208,0.00023,396.648,0.040,0.1474,0.0018,140.003,45.000,31249.45277,1.91472,397.344,27.219,45.060,45.000,0.00,0.11,-272.58,-272.64,-11,557,6,13.8,7.0,-21.4,14.1,7.2,-20.9,5.73,2.60,-15.7,20.6
2013-10-31 01:32:00,0.0,1.91199,0.00049,396.684,0.000,0.1466,0.0011,140.004,45.000,31247.79351,1.91472,397.386,27.205,45.060,45.000,0.00,0.11,-272.58,-272.64,-11,557,6,13.8,7.0,-21.3,14.1,7.2,-20.8,5.73,2.61,-15.7,20.5
2013-10-31 01:33:00,0.0,1.91258,0.00018,396.648,0.021,0.1493,0.0016,140.000,45.000,31247.23122,1.91530,397.364,27.200,45.060,45.000,0.00,0.11,-272.58,-272.64,-11,557,6,13.8,7.1,-21.3,14.1,7.3,-20.8,5.73,2.62,-15.7,20.5
2013-10-31 01:34:00,0.0,1.91190,0.00055,396.674,0.012,0.1511,0.0015,139.999,45.000,31247.78220,1.91493,397.393,27.230,45.060,45.000,0.00,0.11,-272.58,-272.64,-11,557,6,13.8,7.1,-21.3,14.1,7.3,-20.7,5.73,2.59,-15.7,20.5
2013-10-31 01:35:00,0.0,1.91164,0.00019,396.680,0.000,0.1485,0.0013,139.997,45.000,31246.40494,1.91448,397.392,27.228,45.060,45.000,0.00,0.11,-272.58,-272.64,-11,557,6,13.8,7.1,-21.3,14.1,7.3,-20.8,5.73,2.60,-15.7,20.5
2013-10-31 01:36:00,0.0,1.91170,0.00020,396.619,0.015,0.1493,0.0005,139.998,45.000,31248.22522,1.91456,397.340,27.236,45.060,45.000,0.00,0.11,-272.58,-272.64,-11,557,6,13.8,7.0,-21.3,14.1,7.3,-20.8,5.73,2.56,-15.7,20.5
2013-10-31 01:37:00,0.0,1.91099,0.00052,396.543,0.021,0.1479,0.0016,139.996,45.000,31249.25634,1.91378,397.257,27.232,45.060,45.000,0.00,0.11,-272.58,-272.64,-11,557,6,13.8,7.0,-21.4,14.1,7.2,-20.9,5.73,2.57,-15.7,20.5
2013-10-31 01:38:00,0.0,1.91162,0.00018,396.675,0.000,0.1486,0.0008,140.001,45.000,31249.70281,1.91443,397.370,27.250,45.060,45.000,0.00,0.11,-272.58,-272.64,-11,557,6,13.8,7.0,-21.4,14.1,7.2,-20.9,5.73,2.57,-15.7,20.5
2013-10-31 01:39:00,0.0,1.91177,0.00020,396.612,0.030,0.1488,0.0005,139.997,45.000,31247.21862,1.91449,397.331,27.240,45.060,45.000,0.00,0.11,-272.58,-272.64,-11,557,6,13.8,7.0,-21.4,14.1,7.3,-20.8,5.73,2.59,-15.7,20.5
2013-10-31 01:40:00,0.0,1.91192,0.00041,396.645,0.000,0.1498,0.0007,140.001,45.000,31246.82386,1.91482,397.356,27.228,45.060,45.000,0.00,0.11,-272.58,-272.64,-11,557,6,13.8,7.1,-21.3,14.1,7.3,-20.8,5.73,2.60,-15.7,20.5
2013-10-31 01:41:00,0.0,1.91118,0.00016,396.600,0.041,0.1502,0.0026,140.003,45.000,31250.03260,1.91410,397.321,27.247,45.060,45.000,0.00,0.11,-272.58,-272.64,-11,557,6,13.8,7.1,-21.3,14.1,7.3,-20.7,5.73,2.61,-15.7,20.5
2013-10-31 01:42:00,0.0,1.91153,0.00038,396.574,0.031,0.1494,0.0012,139.993,45.000,31247.43128,1.91424,397.292,27.246,45.060,45.000,0.00,0.11,-272.58,-272.64,-11,557,6,13.8,7.1,-21.3,14.1,7.3,-20.7,5.73,2.61,-15.7,20.5
2013-10-31 01:43:00,0.0,1.91176,0.00028,396.619,0.061,0.1482,0.0013,140.005,45.000,31248.60606,1.91453,397.334,27.248,45.060,45.000,0.00,0.11,-272.59,-272.64,-11,557,6,13.8,7.1,-21.3,14.1,7.3,-20.7,5.73,2.59,-15.7,20.5
2013-10-31 01:44:00,0.0,1.91190,0.00022,396.567,0.057,0.1499,0.0017,140.001,45.000,31248.23183,1.91471,397.272,27.242,45.060,45.000,0.00,0.11,-272.58,-272.64,-10,557,6,13.8,7.1,-21.3,14.1,7.3,-20.7,5.73,2.58,-15.7,20.5
2013-10-31 01:45:00,0.0,1.91163,0.00034,396.600,0.024,0.1506,0.0007,140.002,45.000,31247.33091,1.91460,397.325,27.248,45.061,45.000,0.00,0.11,-272.58,-272.64,-10,557,6,13.8,7.1,-21.3,14.1,7.3,-20.7,5.73,2.57,-15.7,20.5
2013-10-31 01:46:00,0.0,1.91197,0.00053,396.606,0.016,0.1505,0.0008,140.006,45.000,31248.58339,1.91477,397.324,27.247,45.060,45.000,0.00,0.11,-272.58,-272.64,-10,557,6,13.8,7.1,-21.3,14.1,7.3,-20.8,5.73,2.57,-15.8,20.5